Погода Комсомольск-на-Амуре

Погода Комсомольск-на-Амуре : погода сейчас, прогноз погоды и архив. Всё, что Вы хотите узнать о погоде Комсомольск-на-Амуре!

Хотите узнать прогноз погоды Комсомольск-на-Амуре? Тогда Вам сюда: Погода Комсомольск-на-Амуре

Поиск расширенной информации на нашем сайте:

Другие новости

Новости СМИ2

Главная страница сайта

Новости сайта

03.07.2017

Напоминаем, что на нашем специализированном сайте Метеоцентр.Азия вы можете получить высокодетализированные автоматические прогнозы погоды по пунктам России, СНГ и мира в авиационном формате (включающие направление и скорость ветра, видимость, явления погоды, количество и форму облачности, нижнюю и верхнюю границу облачности).


Погода Комсомольск-на-Амуре - сегодня

Время (UTC), дата Ветер
(°,м/с) 
Видим.   Явления Облачность Т
(°С)
Тd
(°С)
f(%) Тe
(°С)
Pmin
(гПа)
dP
(гПа)
Po
(мм)
O2
(г/м3)
Тmin Tmax R s Состояние
почвы
18 17.04.18 160 (Ю) 20000 м    10/0 средняя, верхняя 
[As op|Cs]
+6.1 +2.3 77 +5  1004.2  -0.3  751  296           
00 18.04.18 170 (Ю) 20000 м  в посл. час ливневой дождь  10/6 600 м кучево-дожд., средняя 
[Cb cap|As op]
+6.9 +4.8 86 +6  1006.5  1.2  753  295           
03 18.04.18 120 (ЮВ) 20000 м  {ливн. осадки}  10/8 600 м средняя 
[Sc|As trans]
+9 +5.5 79 +8  1006.8  0.3  753  293           
06 18.04.18 070 (В) 20000 м  {ливн. осадки}  8/3 600 м кучево-дожд., средняя, верхняя 
[Cb cap|Ac cuf|Ci sp]
+12.5 +6.1 65 +13  1006  -0.8  753  289           
12 18.04.18 040 (СВ) 20000 м  {ливн. осадки}  10/6 600 м кучево-дожд., средняя 
[Cb cap|As op]
+7 +2.1 71 +7  1008.3  1.3  754  296           
15 18.04.18 340 (С) 10 км    10/10 600 м 
[Sc]
+6.1 +0.6 68 +7  1009.1  1.3  755  297           
18 18.04.18 340 (С) 20000 м    6/3 600 м верхняя 
[Sc|Ci fib]
+4.8 +0.7 75 +6  1009.4  0.3  755  299           
00 19.04.18 030 (СВ) 20000 м    ясно 
+9 +0.3 54 +8  1009.9  -0.4  756  295           
03 19.04.18 050 (СВ) 20000 м    10/0 верхняя 
[Ci fib]
+13 +2.3 48 +13  1008.7  -1.1  755  290           
06 19.04.18 210 (ЮЗ) 20000 м    10/0 верхняя 
[Cs]
+15.1 +1.5 40 +16  1006.4  -2.3  753  287           
12 19.04.18 190 (Ю) 20000 м    6/0 верхняя 
[Cs]
+7.9 +2.6 69 +9  1007.3  0.9  754  295           
15 19.04.18 тихо ()   20000 м    6/0 верхняя 
[Ci fib]
+3.5 +1.7 88 +4  1007.5  0.1  754  300           
18 19.04.18 150 (ЮВ) 20000 м    10/8 600 м верхняя 
[Sc|Ci fib]
+2.6 +1.4 92 +3  1006.8  -0.6  753  300           
00 20.04.18 120 (ЮВ) 20000 м    8/5 600 м верхняя 
[Sc|Ci fib]
+9.7 +1.6 57 +10  1007.7  754  293           
03 20.04.18 140 (ЮВ) 20000 м    10/4 600 м средняя 
[Sc|As trans]
+13.7 +0.6 41 +14  1007.2  -0.5  754  289           
06 20.04.18 020 (С) 20000 м    10/8 600 м средняя 
[Sc|As trans]
+15.9 -1.7 30 +17  1006.1  -1.1  753  287           
12 20.04.18 360 (С) 20000 м    10/6 600 м кучево-дожд., средняя 
[Cb cap|As op]
+10.9 +0.1 47 +11  1005.2  0.4  752  291           
15 20.04.18 340 (С) 10 км  ливневой дождь  10/8 600 м кучево-дожд., средняя 
[Cb cap|As trans]
+9.2 +1.6 59 +9  1002.8  -2.3  750  292           
18 20.04.18 350 (С) 4000 м  ливневой дождь  10/10 600 м кучево-дожд. 
[Cb cap]
+6.6 +5.2 91 +6  1002.4  -0.4  750  294           
12 21.04.18 010 (С) 3{12}  20000 м    ясно 
+4.5 -3.2 57 +3  1018.2  3.7  762  302           
15 21.04.18 360 (С) 20000 м    ясно 
+3.2 -3.6 61 +3  1019.9  1.8  763  304           
18 21.04.18 020 (С) 20000 м    ясно 
-0.7 -3.9 79 1021.1  1.1  764  309           
00 22.04.18 160 (Ю) 20000 м    9/3 600 м средняя, верхняя 
[Sc|Ac trans|Ci]
+5 -1.2 64 +3  1022.2  0.1  765  303           
03 22.04.18 220 (ЮЗ) 4000 м  слаб. ливневой дождь  10/10 600 м кучево-дожд. 
[Cb cap]
+3.4 +1.9 90 +4  1021.6  -0.6  764  304           
06 22.04.18 300 (СЗ) 20000 м  {ливн. осадки}  9/9 600 м кучево-дожд. 
[Cb cap]
+6.5 +1.1 68 +7  1021.3  -0.3  764  301           
Время (UTC), дата Ветер
(°,м/с) 
Видим.   Явления Облачность Т
(°С)
Тd
(°С)
f(%) Тe
(°С)
Pmin
(гПа)
dP
(гПа)
Po
(мм)
O2
(г/м3)
Тmin Tmax R s Состояние
почвы

Для получения пояснительной информации подведите курсор к названию столбца.

ПОГОДА Комсомольск-на-Амуре - архив

Всё, что Вы хотите узнать о погоде Комсомольск-на-Амуре - удобно и подробно!

Выберите нужную дату (начиная с 1 января 2015* года) и нажмите кнопку "Найти".
Будут отображены архивные сводки погоды по пункту Комсомольск-на-Амуре, начиная с указанной даты.


Отображать данные в формате CSV (для использования в таблицах Excel)


Внимание! Наш архив погоды предназначен исключительно для личного некоммерческого использования в познавательных целях. Если Вам необходимы официальные справки о состоянии погоды (для производственных, юридических, коммерческих и т.п. целей), обращайтесь в органы Росгидромета.

*Примечание: данная дата относится к архиву по метеостанциям СССР (Россия, СНГ, Балтия).
Архив по метеостанциям Зарубежной Европы и Азии (кроме Китая) хранится 10 дней, по другим регионам земного шара (Китай, Африка, Америка, Австралия, Океания) - 1 день.

Комсомольск-на-Амуре - район местоположения метеостанции


Название, широта, долгота, высота метеостанции:
Комсомольск-на-Амуре 50.6°ш. 137°д. 19 м над ур. моря [Российская Федерация]

Дополнительная информация

В oтличие oт бoльшинства пoгoдных сайтoв мы публикуем пoдрoбную метеoинфoрмацию в детальнoм прoфессиoнальнoм фoрмате.

Характеристики температуры и влажнoсти вoздуха измеряются на высoте 2 м в тени вдали oт зданий и деревьев.
Скoрoсть ветра измеряется на высoте 10 м (на урoвне рoста челoвека скoрoсть ветра ниже в 1.5-2 раза). Если метеoстанция нахoдится в гoрoде или в лесу, тo скoрoсть ветра занижена на 2-4 м/с пo сравнению с oткрытым местoм. Скoрoсть ветра над акватoриями крупных рек и oзёр, а также на вершинах хoлмoв на 2-5 м/с выше, чем в oбычных услoвиях.
Атмoсфернoе давление в разных тoчках местнoсти мoжет значительнo oтличаться oт давления на метеoстанции, в зависимoсти oт услoвий рельефа (при пoдъёме на 10 м давление пoнижается примернo на 1 мм рт.ст.).